When you browse on this site, cookies collect data to enhance your experience and personalize the content and advertising you see.
Visit our Privacy Policy to learn more. By continuing to use the site, you agree to this use of cookies and data.
  • In Hungary
  • List of Countries
  • For 7 days
  • Water Temperature
  • Satellite Maps
  • Weather Map
  • News
  • Weather Widgets
  • user-avatar
    Login

    Hourly Weather General Pico

    Today, 18 July, Thursday

    Time Temperature Precipitation Wind Pressure Humidity
    00:00 +13°C° 0 mm 2 mps 749 mmHg 84%
    01:00 +12°C° 0 mm 2 mps 749 mmHg 85%
    02:00 +12°C° 0 mm 2 mps 750 mmHg 85%
    03:00 +12°C° 0 mm 4 mps 750 mmHg 70%
    04:00 +12°C° 0 mm 5 mps 750 mmHg 54%
    05:00 +12°C° 0 mm 7 mps 750 mmHg 39%
    06:00 +11°C° 0 mm 6 mps 751 mmHg 39%
    07:00 +11°C° 0 mm 6 mps 752 mmHg 39%
    08:00 +10°C° 0 mm 5 mps 753 mmHg 40%
    09:00 +12°C° 0 mm 5 mps 754 mmHg 39%
    10:00 +12°C° 0 mm 5 mps 754 mmHg 37%
    11:00 +13°C° 0 mm 5 mps 755 mmHg 36%
    12:00 +14°C° 0 mm 5 mps 755 mmHg 34%
    13:00 +14°C° 0 mm 4 mps 755 mmHg 32%
    14:00 +15°C° 0 mm 4 mps 755 mmHg 29%
    15:00 +14°C° 0 mm 3 mps 754 mmHg 30%
    16:00 +14°C° 0 mm 2 mps 754 mmHg 31%
    17:00 +13°C° 0 mm 1 mps 754 mmHg 32%
    18:00 +12°C° 0 mm 1 mps 754 mmHg 34%
    19:00 +10°C° 0 mm 1 mps 755 mmHg 35%
    20:00 +9°C° 0 mm 1 mps 755 mmHg 37%
    21:00 +8°C° 0 mm 1 mps 755 mmHg 38%
    22:00 +8°C° 0 mm 1 mps 755 mmHg 40%
    23:00 +7°C° 0 mm 1 mps 754 mmHg 41%

    Tomorrow, 19 July, Friday

    Time Temperature Precipitation Wind Pressure Humidity
    00:00 +7°C° 0 mm 1 mps 754 mmHg 42%
    01:00 +7°C° 0 mm 1 mps 754 mmHg 43%
    02:00 +6°C° 0 mm 1 mps 754 mmHg 44%
    03:00 +6°C° 0 mm 1 mps 753 mmHg 46%
    04:00 +5°C° 0 mm 2 mps 753 mmHg 47%
    05:00 +5°C° 0 mm 2 mps 752 mmHg 49%
    06:00 +5°C° 0 mm 2 mps 752 mmHg 51%
    07:00 +5°C° 0 mm 2 mps 752 mmHg 53%
    08:00 +5°C° 0 mm 2 mps 752 mmHg 55%
    09:00 +7°C° 0 mm 3 mps 751 mmHg 52%
    10:00 +10°C° 0 mm 4 mps 751 mmHg 48%
    11:00 +12°C° 0 mm 5 mps 750 mmHg 45%
    12:00 +14°C° 0 mm 5 mps 749 mmHg 47%
    13:00 +15°C° 0 mm 5 mps 748 mmHg 48%
    14:00 +16°C° 0 mm 5 mps 748 mmHg 49%
    15:00 +17°C° 0 mm 4 mps 747 mmHg 53%
    16:00 +16°C° 0 mm 3 mps 747 mmHg 58%
    17:00 +15°C° 0 mm 2 mps 747 mmHg 62%
    18:00 +14°C° 0 mm 2 mps 747 mmHg 68%
    19:00 +13°C° 0 mm 2 mps 747 mmHg 75%
    20:00 +10°C° 0 mm 2 mps 747 mmHg 81%
    21:00 +11°C° 0 mm 1 mps 747 mmHg 82%
    22:00 +10°C° 0 mm 1 mps 747 mmHg 83%
    23:00 +9°C° 0 mm 0 mps 748 mmHg 84%

    Day after tomorrow, 20 July, Saturday

    Time Temperature Precipitation Wind Pressure Humidity
    00:00 +10°C° 0 mm 1 mps 747 mmHg 84%
    01:00 +10°C° 0 mm 1 mps 747 mmHg 85%
    02:00 +10°C° 0 mm 1 mps 747 mmHg 86%
    03:00 +10°C° 0 mm 1 mps 747 mmHg 87%
    04:00 +8°C° 0 mm 2 mps 747 mmHg 89%
    05:00 +8°C° 0 mm 2 mps 747 mmHg 91%
    06:00 +8°C° 0 mm 2 mps 747 mmHg 91%
    07:00 +9°C° 0 mm 2 mps 747 mmHg 91%
    08:00 +9°C° 0 mm 2 mps 747 mmHg 92%
    09:00 +10°C° 0 mm 3 mps 747 mmHg 87%
    10:00 +11°C° 0 mm 3 mps 746 mmHg 83%
    11:00 +12°C° 0 mm 3 mps 746 mmHg 78%
    12:00 +13°C° 0 mm 4 mps 745 mmHg 77%
    13:00 +14°C° 0 mm 5 mps 744 mmHg 76%
    14:00 +14°C° 0 mm 5 mps 743 mmHg 75%
    15:00 +14°C° 0 mm 5 mps 742 mmHg 80%
    16:00 +14°C° 0 mm 4 mps 742 mmHg 84%
    17:00 +13°C° 0 mm 4 mps 741 mmHg 88%
    18:00 +13°C° 0 mm 3 mps 740 mmHg 91%
    19:00 +13°C° 0 mm 3 mps 740 mmHg 94%
    20:00 +13°C° 0 mm 3 mps 740 mmHg 97%
    21:00 +15°C° 0 mm 2 mps 739 mmHg 97%
    22:00 +15°C° 0 mm 2 mps 739 mmHg 97%
    23:00 +15°C° 0 mm 2 mps 738 mmHg 98%

    21 July, Sunday

    Time Temperature Precipitation Wind Pressure Humidity
    00:00 +15°C° 0 mm 2 mps 738 mmHg 98%
    01:00 +16°C° 0 mm 2 mps 738 mmHg 97%
    02:00 +16°C° 0 mm 2 mps 738 mmHg 97%
    03:00 +15°C° 0 mm 2 mps 738 mmHg 97%
    04:00 +15°C° 0 mm 2 mps 738 mmHg 97%
    05:00 +14°C° 0 mm 2 mps 738 mmHg 96%
    06:00 +13°C° 0 mm 3 mps 739 mmHg 95%
    07:00 +13°C° 0 mm 4 mps 740 mmHg 93%
    08:00 +12°C° 0 mm 5 mps 740 mmHg 92%
    09:00 +12°C° 0 mm 7 mps 741 mmHg 70%
    10:00 +13°C° 0 mm 8 mps 742 mmHg 48%
    11:00 +13°C° 0 mm 10 mps 743 mmHg 26%
    12:00 +14°C° 0 mm 10 mps 743 mmHg 23%
    13:00 +14°C° 0 mm 10 mps 743 mmHg 21%
    14:00 +14°C° 0 mm 10 mps 743 mmHg 18%
    15:00 +15°C° 0 mm 8 mps 744 mmHg 19%
    16:00 +14°C° 0 mm 6 mps 744 mmHg 19%
    17:00 +13°C° 0 mm 4 mps 745 mmHg 20%
    18:00 +12°C° 0 mm 4 mps 746 mmHg 21%
    19:00 +12°C° 0 mm 3 mps 746 mmHg 23%
    20:00 +11°C° 0 mm 3 mps 747 mmHg 25%
    21:00 +10°C° 0 mm 2 mps 748 mmHg 27%
    22:00 +11°C° 0 mm 1 mps 749 mmHg 29%
    23:00 +9°C° 0 mm 0 mps 749 mmHg 32%

    22 July, Monday

    Time Temperature Precipitation Wind Pressure Humidity
    00:00 +9°C° 0 mm 1 mps 749 mmHg 32%
    01:00 +8°C° 0 mm 2 mps 750 mmHg 32%
    02:00 +7°C° 0 mm 3 mps 750 mmHg 32%
    03:00 +5°C° 0 mm 3 mps 750 mmHg 34%
    04:00 +5°C° 0 mm 3 mps 751 mmHg 36%
    05:00 +4°C° 0 mm 3 mps 751 mmHg 38%
    06:00 +4°C° 0 mm 3 mps 751 mmHg 40%
    07:00 +4°C° 0 mm 4 mps 752 mmHg 43%
    08:00 +4°C° 0 mm 4 mps 753 mmHg 46%
    09:00 +6°C° 0 mm 4 mps 753 mmHg 41%
    10:00 +8°C° 0 mm 4 mps 754 mmHg 37%
    11:00 +10°C° 0 mm 5 mps 754 mmHg 32%
    12:00 +10°C° 0 mm 5 mps 754 mmHg 29%
    13:00 +12°C° 0 mm 5 mps 754 mmHg 26%
    14:00 +13°C° 0 mm 5 mps 753 mmHg 23%
    15:00 +12°C° 0 mm 4 mps 754 mmHg 26%
    16:00 +10°C° 0 mm 3 mps 754 mmHg 29%
    17:00 +9°C° 0 mm 2 mps 754 mmHg 31%
    18:00 +8°C° 0 mm 3 mps 755 mmHg 33%
    19:00 +5°C° 0 mm 3 mps 755 mmHg 35%
    20:00 +4°C° 0 mm 3 mps 756 mmHg 36%
    21:00 +4°C° 0 mm 2 mps 756 mmHg 37%
    22:00 +4°C° 0 mm 2 mps 756 mmHg 38%
    23:00 +3°C° 0 mm 2 mps 757 mmHg 39%

    23 July, Tuesday

    Time Temperature Precipitation Wind Pressure Humidity
    00:00 +3°C° 0 mm 2 mps 757 mmHg 40%
    01:00 +4°C° 0 mm 1 mps 757 mmHg 40%
    02:00 +3°C° 0 mm 1 mps 757 mmHg 41%
    03:00 +3°C° 0 mm 1 mps 757 mmHg 42%
    04:00 +2°C° 0 mm 2 mps 757 mmHg 43%
    05:00 +2°C° 0 mm 2 mps 757 mmHg 43%
    06:00 +2°C° 0 mm 2 mps 758 mmHg 43%
    07:00 +2°C° 0 mm 2 mps 758 mmHg 43%
    08:00 +3°C° 0 mm 2 mps 758 mmHg 43%
    09:00 +5°C° 0 mm 2 mps 758 mmHg 37%
    10:00 +8°C° 0 mm 3 mps 758 mmHg 32%
    11:00 +11°C° 0 mm 3 mps 758 mmHg 26%
    12:00 +12°C° 0 mm 3 mps 758 mmHg 25%
    13:00 +13°C° 0 mm 4 mps 757 mmHg 23%
    14:00 +14°C° 0 mm 4 mps 757 mmHg 22%
    15:00 +12°C° 0 mm 3 mps 757 mmHg 25%
    16:00 +12°C° 0 mm 2 mps 757 mmHg 28%
    17:00 +11°C° 0 mm 1 mps 757 mmHg 32%
    18:00 +9°C° 0 mm 1 mps 757 mmHg 33%
    19:00 +8°C° 0 mm 1 mps 757 mmHg 34%
    20:00 +7°C° 0 mm 1 mps 758 mmHg 36%
    21:00 +6°C° 0 mm 1 mps 758 mmHg 37%
    22:00 +6°C° 0 mm 1 mps 758 mmHg 38%
    23:00 +5°C° 0 mm 1 mps 759 mmHg 39%
    Show more